Weather History for Rolla, MO

Change the Weather History Date:

Tuesday, June 18, 2013

  Actual Average Record
Temperature  
Mean Temperature 71 °F 73 °F  
Max Temperature 84 °F 83 °F 101 °F (1953)
Min Temperature 57 °F 63 °F 50 °F (1903)
Degree Days  
Heating Degree Days 0 0  
Month to date heating degree days 17 12  
Since 1 June heating degree days 17 12  
Since 1 July heating degree days 4957 4846  
Cooling Degree Days 6 8  
Month to date cooling degree days 75 116  
Year to date cooling degree days 182 223  
Since 1 June cooling degree days 75 116  
Growing Degree Days 19 (Base 50)    
Moisture  
Dew Point 61 °F    
Average Humidity 92    
Maximum Humidity 100    
Minimum Humidity 61    
Precipitation  
Precipitation 0.01 in 0.16 in 2.32 in (1973)
Month to date precipitation 2.33 2.91  
Year to date precipitation 23.63 19.72  
Sea Level Pressure  
Sea Level Pressure 29.97 in    
Wind  
Wind Speed 4 mph (WNW)    
Max Wind Speed 14 mph    
Max Gust Speed 17 mph    
Visibility 5 miles    
Events Fog    
T = Trace of Precipitation, MM = Missing Value Source: NWS Daily Summary

Daily Weather History Graph

Daily Weather History Graph

Search for Another Location

Airport:

Trip Planner

Search our weather history database for the weather conditions in past years. The results will help you decide how hot, cold, wet, or windy it might be!

Date:

Astronomy

Jun. 18, 2013 Rise Set
Actual Time 5:43 AM CDT 8:32 PM CDT
Civil Twilight 5:12 AM CDT 9:04 PM CDT
Nautical Twilight 4:32 AM CDT 9:44 PM CDT
Astronomical Twilight 3:47 AM CDT 10:29 PM CDT
Moon 3:21 PM CDT (6/18) 1:48 AM CDT (6/18)
Length of Visible Light 15h 52m
Length of Day
14h 48m
Waxing Gibbous, 71% of the Moon is Illuminated
Jun 18
Waxing Gibbous
Jun 23
Full
Jun 29
Last Quarter
Jul 8
New
Jul 15
First Quarter

Hourly Weather History & Observations

Time (CDT) Temp. Heat Index Dew Point Humidity Pressure Visibility Wind Dir Wind Speed Gust Speed Precip Events Conditions
12:53 AM 61.0 °F - 61.0 °F 100% 29.93 in 10.0 mi Calm Calm - N/A   Clear
1:43 AM 60.8 °F - 59.0 °F 94% 29.95 in 1.5 mi Calm Calm - N/A   Clear
1:46 AM 59.0 °F - 59.0 °F 100% 29.95 in 0.5 mi Calm Calm - N/A Fog Fog
1:53 AM 57.0 °F - 57.0 °F 100% 29.93 in 0.5 mi Calm Calm - N/A Fog Fog
1:58 AM 59.0 °F - 57.2 °F 94% 29.95 in 1.0 mi Calm Calm - N/A   Clear
2:01 AM 59.0 °F - 57.2 °F 94% 29.95 in 3.0 mi Calm Calm - N/A   Clear
2:48 AM 60.8 °F - 60.8 °F 100% 29.97 in 2.5 mi NW 3.5 mph - N/A   Partly Cloudy
2:50 AM 60.8 °F - 60.8 °F 100% 29.97 in 1.0 mi NW 3.5 mph - N/A   Mist
2:53 AM 61.0 °F - 60.1 °F 97% 29.94 in 0.5 mi NW 3.5 mph - N/A Fog Fog
3:10 AM 60.8 °F - 60.8 °F 100% 29.97 in 1.0 mi West 4.6 mph - N/A   Mist
3:13 AM 60.8 °F - 60.8 °F 100% 29.97 in 4.0 mi West 4.6 mph - N/A   Mostly Cloudy
3:22 AM 60.8 °F - 60.8 °F 100% 29.98 in 8.0 mi West 4.6 mph - N/A   Scattered Clouds
3:40 AM 60.8 °F - 60.8 °F 100% 29.99 in 1.8 mi West 5.8 mph - N/A   Mostly Cloudy
3:53 AM 61.0 °F - 61.0 °F 100% 29.95 in 1.0 mi WNW 3.5 mph - N/A   Mist
4:02 AM 60.8 °F - 60.8 °F 100% 29.97 in 0.5 mi NW 3.5 mph - N/A Fog Fog
4:14 AM 60.8 °F - 60.8 °F 100% 29.97 in 1.0 mi Calm Calm - N/A   Mist
4:23 AM 60.8 °F - 60.8 °F 100% 29.97 in 0.5 mi Calm Calm - N/A Fog Fog
4:43 AM 59.0 °F - 59.0 °F 100% 29.97 in 1.0 mi WNW 3.5 mph - N/A   Mist
4:47 AM 59.0 °F - 57.2 °F 94% 29.97 in 2.5 mi WNW 4.6 mph - N/A   Scattered Clouds
4:53 AM 60.1 °F - 59.0 °F 96% 29.95 in 10.0 mi WNW 4.6 mph - N/A   Scattered Clouds
5:53 AM 61.0 °F - 60.1 °F 97% 29.96 in 10.0 mi WNW 3.5 mph - N/A   Clear
6:53 AM 63.0 °F - 62.1 °F 97% 29.99 in 10.0 mi WNW 4.6 mph - 0.01 in   Clear
7:53 AM 66.0 °F - 63.0 °F 90% 29.98 in 10.0 mi NNW 4.6 mph - N/A   Clear
8:53 AM 69.1 °F - 64.0 °F 84% 29.99 in 10.0 mi WNW 8.1 mph - N/A   Clear
9:53 AM 73.0 °F - 66.9 °F 81% 29.99 in 10.0 mi WNW 4.6 mph - N/A   Clear
10:53 AM 77.0 °F - 69.1 °F 76% 29.99 in 10.0 mi WNW 4.6 mph - N/A   Clear
12:53 PM 81.0 °F 84.1 °F 69.1 °F 67% 29.98 in 10.0 mi West 5.8 mph - N/A   Clear
2:59 PM 80.6 °F 82.7 °F 66.2 °F 61% 29.99 in 10.0 mi NNW 4.6 mph - N/A   Clear
3:53 PM 73.0 °F - 63.0 °F 71% 29.98 in 10.0 mi ENE 10.4 mph - 0.00 in   Partly Cloudy
4:53 PM 72.0 °F - 64.9 °F 78% 29.97 in 10.0 mi Calm Calm - 0.01 in   Clear